Location: Maignaut
(43.8886°N, 0.4051°E)
Time: 19:55:57
(UTC+00:00)

Tsikada Rocket - Pass Details

Date: 17 January 2021
Orbit: 957 x 1010 km, 82.9° (Epoch: 28 February)

Event Time Altitude Azimuth Distance (km) Brightness Sun altitude
Rises 17:14:56 0° 183° (S) 3,712 7.4 -5.0°
Reaches altitude 10° 17:17:28 10° 182° (S) 2,761 6.7 -5.4°
Maximum altitude 17:23:49 82° 96° (E) 1,005 4.1 -6.5°
Drops below altitude 10° 17:30:07 10° 10° (N) 2,744 6.1 -7.5°
Sets 17:32:37 0° 9° (N) 3,688 6.7 -7.9°
